SCP
0 0 0 -0 0 -0 -0 0 0 0 0 0 0 0 0 0 0 0 0 0 0 0 0 0 0 0 0 0 0 0 0 0 0 0 0 0 0 0 0 0 0 0 0 0
0 0 0 0 0 0 -0 -0 0 0 0 0 0 0 0 0 0 0 0 0 0 0 0 0 0 0 0 0 0 0 0 0 0 0 0 0 0 0 0 0 0 0 0 0
0 0 0 0 0 -0 0 -0 -0 -0 0 0 0 0 0 0 0 0 0 0 0 0 0 0 0 0 0 0 0 0 0 0 0 0 0 0 0 0 0 0 0 0 0 0
0 0 0 0 0 0 0 -0 -0 -0 0 0 0 0 -0 -0 -0 0 0 0 0 0 0 0 0 0 0 0 0 0 0 0 0 0 0 0 0 0 0 0 0 0 0 0
0 0 0 0 0 0 0 0 0 -0 -0 0 -0 0 0 0 0 0 0 0 0 0 0 0 -0 0 0 0 0 0 0 0 0 0 0 0 0 0 0 0 0 0 0 0
0 0 0 0 0 0 0 0 0 -0 -0 0 0 0 0 0 0 0 0 0 0 0 0 0 0 0 0 0 0 0 0 0 0 0 0 0 0 0 0 0 0 0 0 0
0 0 0 0 0 0 0 0 0 -0 -0 0 -0 0 0 0 0 0 0 0 0 0 0 0 0 0 0 0 0 0 0 0 0 0 0 0 0 0 0 0 0 0 0 0
0 0 0 0 0 0 0 0 0 0 -0 0 -0 0 0 0 0 0 0 0 0 0 0 0 0 0 -0 0 0 0 0 0 0 0 0 0 0 0 0 0 0 0 0 0
0 0 0 0 0 0 0 0 0 0 0 0 0 -0 -0 0 0 0 0 0 0 0 0 0 0 0 0 0 0 0 0 0 0 0 0 0 0 0 0 0 0 0 0 0
0 0 0 0 0 0 0 0 0 0 0 0 0 -0 0 0 0 0 0 0 0 0 0 0 0 0 0 0 0 0 0 0 0 0 0 0 0 0 0 0 0 0 0 0
0 0 0 0 0 0 0 0 0 0 0 0 0 0 0 0 0 0 0 0 0 0 0 0 0 0 0 0 0 0 0 0 0 0 0 0 0 0 0 0 0 0 0 0
0 0 0 0 0 0 0 0 0 0 0 0 0 -0 -0 -0 -0 0 0 0 -0 -0 0 0 0 0 0 0 0 0 0 0 0 0 0 0 0 0 0 0 0 0 0 0
0 0 0 0 0 0 0 0 0 0 0 0 0 0 0 0 0 -0 -0 0 0 -0 0 0 0 0 0 0 0 0 0 0 0 0 0 0 0 0 0 0 0 0 0 0
0 0 0 0 0 0 0 0 0 0 0 0 0 -0 -0 -0 -0 -0 -0 -0 0 0 0 0 0 0 0 0 0 0 0 0 0 0 0 0 0 0 0 0 0 0 0 0
0 0 0 0 0 0 0 0 0 0 0 0 -0 0 0 -0 -0 -0 0 0 0 0 0 0 0 0 0 0 0 0 0 0 0 0 0 0 0 0 0 0 0 0 0 0
0 0 0 0 0 0 0 0 0 0 0 0 0 0 0 0 0 0 0 0 0 0 0 0 0 0 0 0 0 0 0 0 0 0 0 0 0 0 0 0 0 0 0 0
0 0 0 0 0 0 0 0 0 0 0 0 0 0 0 0 0 0 0 0 0 0 0 0 0 0 0 0 0 0 0 0 0 0 0 0 0 0 0 0 0 0 0 0
0 0 0 0 0 0 0 0 0 0 0 0 0 0 0 0 0 0 0 0 0 0 0 0 0 0 0 0 0 0 0 0 0 0 0 0 0 0 0 0 0 0 0 0
0 0 0 0 0 0 0 0 0 0 0 0 0 0 0 0 0 0 0 0 -0 -0 0 0 0 0 0 0 0 0 0 0 0 0 0 0 0 0 0 0 0 0 0 0
0 0 0 0 0 0 0 0 0 0 0 0 0 0 0 0 0 0 0 0 -0 0 0 -0 -0 0 0 0 0 0 0 0 0 0 0 0 0 0 0 0 0 0 0 0
0 0 0 0 0 0 0 0 0 0 0 0 0 0 0 0 0 0 0 0 0 0 0 -0 0 0 0 0 0 0 0 0 0 0 0 0 0 0 0 0 0 0 0 0
0 0 0 0 0 0 0 0 0 0 0 0 0 0 0 0 0 0 0 0 0 0 0 0 0 0 0 0 0 0 0 0 0 0 0 0 0 0 0 0 0 0 0 0
0 0 0 0 0 0 0 0 0 0 0 0 0 0 0 0 0 0 0 0 0 0 0 0 0 0 0 0 0 0 0 0 0 0 0 0 0 0 0 0 0 0 0 0
0 0 0 0 0 0 0 0 0 0 0 0 0 0 0 0 0 0 0 0 0 0 0 0 0 0 0 0 0 0 0 0 0 0 0 0 0 0 0 0 0 0 0 0
0 0 0 0 0 0 0 0 0 0 0 0 0 0 0 0 0 0 0 0 0 0 0 0 0 0 0 0 0 0 0 0 0 0 0 0 0 0 0 0 0 0 0 0
0 0 0 0 0 0 0 0 0 0 0 0 0 0 0 0 -0 0 0 0 0 0 0 0 0 0 0 0 0 0 0 0 0 0 0 0 0 0 0 0 0 0 0 0
Wind_Speed_500mb
8 16 19 23 21 18 13 10 8 8 6 11 23 24 18 12 27 29 36 35 23 5 8 18 32 35 37 38 39 45 48 48 45 43 41 38 37 35 33 31 29 28 27 26
2 20 19 15 13 14 15 9 11 6 10 11 11 24 28 18 19 31 45 46 60 34 24 15 30 38 42 43 46 47 52 51 49 46 42 39 37 35 34 33 31 29 27 26
12 16 20 11 14 23 11 20 17 18 19 13 13 25 25 22 23 24 32 39 48 54 44 36 28 37 40 49 57 57 57 54 53 50 48 43 43 40 37 34 33 30 29 29
6 14 16 12 13 19 7 17 19 18 17 4 8 7 19 23 26 28 37 43 42 44 42 47 40 39 42 52 61 65 62 62 59 56 51 49 41 40 38 37 35 33 31 30
9 15 18 15 14 18 11 18 17 17 18 12 13 8 15 7 17 25 27 41 51 63 39 49 56 50 40 51 56 66 67 68 65 61 56 52 48 42 40 38 36 34 32 32
12 5 6 12 20 11 22 17 16 12 9 6 11 6 13 1 6 13 20 36 48 62 56 51 69 45 51 54 62 69 76 73 69 66 64 58 53 50 44 39 38 37 34 35
14 2 3 8 21 8 21 20 6 4 2 5 3 10 18 18 15 8 8 8 27 52 65 60 52 50 67 58 63 60 71 79 77 72 65 65 61 57 47 43 39 39 40 38
11 7 10 14 7 12 13 12 8 10 14 21 5 9 3 7 11 10 11 10 11 20 35 67 68 54 65 63 42 61 69 76 82 78 74 68 63 57 52 47 43 39 38 35
12 9 2 3 6 8 8 5 6 10 15 11 5 13 18 8 6 12 5 6 7 11 22 52 59 78 74 75 57 58 77 74 81 82 79 75 65 59 57 51 46 43 38 39
6 13 4 2 6 5 7 10 6 4 10 15 15 22 9 8 5 9 13 15 6 8 16 25 37 58 84 75 87 90 89 84 79 86 88 81 59 65 62 56 52 50 44 45
7 4 9 7 6 13 5 4 5 7 8 10 17 11 12 3 8 7 7 20 20 5 8 14 22 35 49 60 62 87 88 82 85 90 96 89 79 77 72 64 59 54 45 45
5 10 11 27 4 4 9 11 14 7 9 14 13 25 10 14 16 12 20 22 27 22 12 14 21 26 30 43 57 46 61 73 82 88 90 86 79 76 69 68 58 52 50 47
4 5 13 9 5 5 8 8 18 18 14 28 21 14 3 5 8 21 31 37 29 33 33 23 16 21 24 30 43 52 53 64 73 80 87 81 78 70 67 69 57 52 52 47
3 11 21 24 31 29 33 35 27 21 18 27 31 47 40 36 37 40 40 37 45 41 39 30 24 17 20 24 30 40 47 60 70 75 79 79 73 69 66 59 53 56 51 44
8 17 24 35 34 35 41 43 39 32 41 30 44 39 46 40 37 45 41 37 30 29 31 32 24 20 20 20 28 37 56 64 66 72 75 73 71 64 62 53 52 53 46 43
10 19 21 32 36 30 32 40 44 41 41 36 45 48 39 28 27 32 31 34 36 27 24 26 26 22 20 22 29 39 44 48 56 69 75 72 70 63 58 58 55 53 46 45
22 13 18 31 29 24 30 22 27 17 17 25 28 30 15 18 21 23 20 20 23 22 18 18 26 28 28 26 28 31 37 48 60 66 67 65 62 61 59 59 55 49 48 42
39 33 13 21 25 18 17 15 20 22 36 31 33 33 26 22 19 24 20 16 19 22 23 20 23 29 28 29 32 34 42 52 57 57 56 56 60 62 62 58 55 51 43 37
29 22 17 10 20 35 37 27 6 11 24 17 26 32 24 17 13 25 12 11 15 22 29 28 18 26 31 35 38 47 52 55 56 57 59 61 63 65 63 59 53 47 42 32
7 21 17 14 16 15 13 5 1 2 27 7 3 11 14 9 11 12 11 15 21 27 32 32 18 22 33 36 43 46 50 58 60 62 64 65 64 62 60 56 54 46 34 24
6 10 27 29 21 20 15 11 6 13 9 13 3 12 23 20 26 13 30 37 36 37 34 33 27 27 35 40 45 48 51 55 58 62 64 65 62 61 60 54 48 36 24 18
19 12 13 15 20 26 9 12 10 23 41 46 33 25 31 37 46 46 48 47 53 47 42 38 34 35 38 48 50 54 57 59 62 65 66 67 65 60 56 50 35 26 25 27
18 25 25 31 23 31 23 34 51 56 47 47 47 44 43 42 50 59 58 50 46 49 50 44 37 39 47 53 55 60 60 63 66 70 68 67 61 56 51 40 34 31 31 29
33 37 28 35 33 39 56 73 80 76 68 64 43 47 46 47 54 54 57 49 54 53 49 46 37 41 50 57 61 63 65 65 69 73 71 66 61 59 48 39 32 33 32 26
31 43 43 44 46 58 54 53 62 69 68 65 60 58 58 54 52 56 55 55 54 60 59 50 40 38 47 53 62 69 66 69 74 75 71 64 62 59 44 33 32 33 28 23
20 13 10 10 48 35 51 64 64 69 62 64 63 65 58 54 57 51 57 55 53 60 58 55 54 55 55 56 65 67 66 75 81 77 69 67 63 50 40 34 34 28 23 21
Wind_Direction_500mb
4 35 18 354 349 334 330 296 347 43 352 256 230 245 242 230 204 193 193 190 228 241 42 222 215 208 204 198 201 207 208 208 208 205 202 201 197 198 193 194 194 192 190 189
346 32 2 335 313 307 321 319 20 129 4 288 204 250 240 213 233 207 187 191 211 211 238 275 232 210 210 208 209 209 214 214 212 212 211 209 207 204 206 204 200 199 196 196
360 5 329 330 352 341 52 9 355 341 313 251 285 258 241 234 222 220 223 213 199 217 231 226 242 216 217 216 219 219 219 216 216 215 212 210 213 211 211 206 206 203 202 199
8 351 345 343 22 350 353 4 330 319 320 339 337 310 183 221 212 219 209 210 209 215 226 245 263 274 238 233 230 228 224 219 217 218 220 220 221 218 216 214 211 208 206 206
32 343 350 1 353 332 349 324 308 312 307 307 190 278 274 116 248 240 224 205 204 209 227 250 236 249 253 248 233 231 227 223 218 218 219 219 217 218 221 219 216 211 212 213
315 323 299 330 317 290 310 295 277 281 301 266 41 321 287 228 360 305 250 218 210 208 214 219 223 252 249 252 232 233 227 228 223 221 216 218 219 218 219 219 219 219 220 219
339 326 337 316 320 195 340 340 331 344 288 327 101 293 265 301 346 291 300 261 215 212 221 216 208 215 234 245 238 235 230 229 226 222 220 219 218 222 221 218 219 222 220 218
333 319 2 3 6 318 332 339 357 320 341 316 220 262 47 99 333 317 281 271 235 217 203 211 212 217 236 229 239 256 244 233 228 224 220 219 217 220 218 217 216 219 220 221
342 331 116 6 333 326 3 347 342 293 291 273 256 260 261 228 80 36 28 315 246 218 224 221 226 234 236 238 234 235 248 240 231 225 221 216 216 220 219 215 214 214 216 226
22 293 89 11 275 193 277 337 273 209 301 325 300 303 254 217 113 33 34 34 9 212 236 244 233 229 229 231 236 235 239 239 235 229 226 222 216 222 223 214 217 214 214 217
319 251 314 250 196 331 218 220 228 304 271 302 308 304 29 291 253 302 348 349 336 277 250 246 250 244 233 229 231 237 235 235 231 226 223 219 217 218 211 221 213 209 209 206
43 310 289 293 52 303 275 288 294 287 293 257 276 283 311 341 285 267 284 309 316 293 268 268 272 264 252 228 221 223 226 225 226 225 221 224 221 215 209 207 204 206 204 199
108 242 299 309 155 171 244 277 263 291 293 263 274 263 163 297 251 252 268 280 300 295 286 279 246 251 255 233 227 223 229 222 224 220 218 219 212 203 205 201 202 199 194 194
204 256 258 281 293 314 296 287 267 255 273 267 262 280 289 296 301 302 292 292 295 294 281 273 273 246 217 223 213 208 203 205 215 216 215 209 202 196 199 199 190 193 187 189
239 259 273 277 287 292 285 280 277 255 251 263 278 283 287 303 307 301 298 298 293 292 283 265 254 248 239 208 202 195 198 208 210 207 202 194 194 191 195 192 184 188 182 187
222 263 286 284 289 284 291 281 271 266 261 257 262 273 285 299 299 305 298 296 296 288 286 266 248 229 224 222 216 213 213 204 198 192 187 187 188 187 185 184 184 183 181 184
235 255 291 276 287 299 289 272 266 247 237 234 266 274 348 297 314 309 309 308 302 299 292 256 238 240 233 223 218 206 196 191 186 185 183 183 182 181 182 182 180 181 180 179
260 260 263 289 291 248 251 283 275 270 281 278 260 272 287 287 286 288 283 291 320 328 319 295 250 224 215 213 213 201 187 185 187 189 187 183 182 180 178 180 179 177 175 175
247 252 250 264 251 281 286 284 194 210 278 293 268 282 262 263 299 277 261 289 322 330 330 320 273 226 207 198 197 198 196 194 195 193 191 186 184 182 180 177 175 174 173 174
209 233 237 240 261 273 347 87 109 250 293 304 257 278 238 192 260 323 328 309 312 318 319 318 296 216 206 201 197 197 193 197 196 193 189 187 186 184 178 176 173 169 172 180
183 205 222 237 256 270 303 290 157 249 346 36 325 265 233 220 242 316 320 305 300 295 296 300 291 238 221 207 205 199 195 197 196 192 190 188 183 179 178 172 170 176 173 186
250 232 215 237 254 274 287 113 224 332 329 331 325 317 302 277 262 288 300 297 295 283 285 284 273 252 225 217 209 203 203 202 200 195 192 186 182 178 174 174 176 179 189 213
266 260 272 270 260 299 311 292 290 299 303 306 306 304 303 300 293 293 294 292 286 286 284 273 263 248 230 223 213 210 206 205 200 195 188 183 177 177 178 184 188 189 210 217
278 288 276 280 282 291 302 308 305 302 299 302 303 303 304 299 296 288 290 282 289 293 282 267 256 241 235 223 214 213 212 205 200 190 182 177 177 179 169 189 182 208 215 218
288 297 290 281 290 308 294 308 318 318 313 318 316 308 300 294 293 292 288 286 288 290 283 264 258 253 246 225 213 214 208 204 194 187 178 176 181 177 183 197 198 214 215 220
7 3 332 313 314 325 307 316 321 311 311 309 313 314 307 299 294 290 288 295 284 279 282 264 250 238 234 221 212 211 205 199 193 179 176 181 178 184 201 190 211 216 222 227
Wind_Speed_850mb
8 16 19 23 21 18 13 10 8 8 6 11 23 24 18 12 27 29 36 35 23 5 8 18 32 35 37 38 39 45 48 48 45 43 41 38 37 35 33 31 29 28 27 26
2 20 19 15 13 14 15 9 11 6 10 11 11 24 28 18 19 31 45 46 60 34 24 15 30 38 42 43 46 47 52 51 49 46 42 39 37 35 34 33 31 29 27 26
12 16 20 11 14 23 11 20 17 18 19 13 13 25 25 22 23 24 32 39 48 54 44 36 28 37 40 49 57 57 57 54 53 50 48 43 43 40 37 34 33 30 29 29
6 14 16 12 13 19 7 17 19 18 17 4 8 7 19 23 26 28 37 43 42 44 42 47 40 39 42 52 61 65 62 62 59 56 51 49 41 40 38 37 35 33 31 30
9 15 18 15 14 18 11 18 17 17 18 12 13 8 15 7 17 25 27 41 51 63 39 49 56 50 40 51 56 66 67 68 65 61 56 52 48 42 40 38 36 34 32 32
12 5 6 12 20 11 22 17 16 12 9 6 11 6 13 1 6 13 20 36 48 62 56 51 69 45 51 54 62 69 76 73 69 66 64 58 53 50 44 39 38 37 34 35
14 2 3 8 21 8 21 20 6 4 2 5 3 10 18 18 15 8 8 8 27 52 65 60 52 50 67 58 63 60 71 79 77 72 65 65 61 57 47 43 39 39 40 38
11 7 10 14 7 12 13 12 8 10 14 21 5 9 3 7 11 10 11 10 11 20 35 67 68 54 65 63 42 61 69 76 82 78 74 68 63 57 52 47 43 39 38 35
12 9 2 3 6 8 8 5 6 10 15 11 5 13 18 8 6 12 5 6 7 11 22 52 59 78 74 75 57 58 77 74 81 82 79 75 65 59 57 51 46 43 38 39
6 13 4 2 6 5 7 10 6 4 10 15 15 22 9 8 5 9 13 15 6 8 16 25 37 58 84 75 87 90 89 84 79 86 88 81 59 65 62 56 52 50 44 45
7 4 9 7 6 13 5 4 5 7 8 10 17 11 12 3 8 7 7 20 20 5 8 14 22 35 49 60 62 87 88 82 85 90 96 89 79 77 72 64 59 54 45 45
5 10 11 27 4 4 9 11 14 7 9 14 13 25 10 14 16 12 20 22 27 22 12 14 21 26 30 43 57 46 61 73 82 88 90 86 79 76 69 68 58 52 50 47
4 5 13 9 5 5 8 8 18 18 14 28 21 14 3 5 8 21 31 37 29 33 33 23 16 21 24 30 43 52 53 64 73 80 87 81 78 70 67 69 57 52 52 47
3 11 21 24 31 29 33 35 27 21 18 27 31 47 40 36 37 40 40 37 45 41 39 30 24 17 20 24 30 40 47 60 70 75 79 79 73 69 66 59 53 56 51 44
8 17 24 35 34 35 41 43 39 32 41 30 44 39 46 40 37 45 41 37 30 29 31 32 24 20 20 20 28 37 56 64 66 72 75 73 71 64 62 53 52 53 46 43
10 19 21 32 36 30 32 40 44 41 41 36 45 48 39 28 27 32 31 34 36 27 24 26 26 22 20 22 29 39 44 48 56 69 75 72 70 63 58 58 55 53 46 45
22 13 18 31 29 24 30 22 27 17 17 25 28 30 15 18 21 23 20 20 23 22 18 18 26 28 28 26 28 31 37 48 60 66 67 65 62 61 59 59 55 49 48 42
39 33 13 21 25 18 17 15 20 22 36 31 33 33 26 22 19 24 20 16 19 22 23 20 23 29 28 29 32 34 42 52 57 57 56 56 60 62 62 58 55 51 43 37
29 22 17 10 20 35 37 27 6 11 24 17 26 32 24 17 13 25 12 11 15 22 29 28 18 26 31 35 38 47 52 55 56 57 59 61 63 65 63 59 53 47 42 32
7 21 17 14 16 15 13 5 1 2 27 7 3 11 14 9 11 12 11 15 21 27 32 32 18 22 33 36 43 46 50 58 60 62 64 65 64 62 60 56 54 46 34 24
6 10 27 29 21 20 15 11 6 13 9 13 3 12 23 20 26 13 30 37 36 37 34 33 27 27 35 40 45 48 51 55 58 62 64 65 62 61 60 54 48 36 24 18
19 12 13 15 20 26 9 12 10 23 41 46 33 25 31 37 46 46 48 47 53 47 42 38 34 35 38 48 50 54 57 59 62 65 66 67 65 60 56 50 35 26 25 27
18 25 25 31 23 31 23 34 51 56 47 47 47 44 43 42 50 59 58 50 46 49 50 44 37 39 47 53 55 60 60 63 66 70 68 67 61 56 51 40 34 31 31 29
33 37 28 35 33 39 56 73 80 76 68 64 43 47 46 47 54 54 57 49 54 53 49 46 37 41 50 57 61 63 65 65 69 73 71 66 61 59 48 39 32 33 32 26
31 43 43 44 46 58 54 53 62 69 68 65 60 58 58 54 52 56 55 55 54 60 59 50 40 38 47 53 62 69 66 69 74 75 71 64 62 59 44 33 32 33 28 23
20 13 10 10 48 35 51 64 64 69 62 64 63 65 58 54 57 51 57 55 53 60 58 55 54 55 55 56 65 67 66 75 81 77 69 67 63 50 40 34 34 28 23 21
Wind_Direction_850mb
4 35 18 354 349 334 330 296 347 43 352 256 230 245 242 230 204 193 193 190 228 241 42 222 215 208 204 198 201 207 208 208 208 205 202 201 197 198 193 194 194 192 190 189
346 32 2 335 313 307 321 319 20 129 4 288 204 250 240 213 233 207 187 191 211 211 238 275 232 210 210 208 209 209 214 214 212 212 211 209 207 204 206 204 200 199 196 196
360 5 329 330 352 341 52 9 355 341 313 251 285 258 241 234 222 220 223 213 199 217 231 226 242 216 217 216 219 219 219 216 216 215 212 210 213 211 211 206 206 203 202 199
8 351 345 343 22 350 353 4 330 319 320 339 337 310 183 221 212 219 209 210 209 215 226 245 263 274 238 233 230 228 224 219 217 218 220 220 221 218 216 214 211 208 206 206
32 343 350 1 353 332 349 324 308 312 307 307 190 278 274 116 248 240 224 205 204 209 227 250 236 249 253 248 233 231 227 223 218 218 219 219 217 218 221 219 216 211 212 213
315 323 299 330 317 290 310 295 277 281 301 266 41 321 287 228 360 305 250 218 210 208 214 219 223 252 249 252 232 233 227 228 223 221 216 218 219 218 219 219 219 219 220 219
339 326 337 316 320 195 340 340 331 344 288 327 101 293 265 301 346 291 300 261 215 212 221 216 208 215 234 245 238 235 230 229 226 222 220 219 218 222 221 218 219 222 220 218
333 319 2 3 6 318 332 339 357 320 341 316 220 262 47 99 333 317 281 271 235 217 203 211 212 217 236 229 239 256 244 233 228 224 220 219 217 220 218 217 216 219 220 221
342 331 116 6 333 326 3 347 342 293 291 273 256 260 261 228 80 36 28 315 246 218 224 221 226 234 236 238 234 235 248 240 231 225 221 216 216 220 219 215 214 214 216 226
22 293 89 11 275 193 277 337 273 209 301 325 300 303 254 217 113 33 34 34 9 212 236 244 233 229 229 231 236 235 239 239 235 229 226 222 216 222 223 214 217 214 214 217
319 251 314 250 196 331 218 220 228 304 271 302 308 304 29 291 253 302 348 349 336 277 250 246 250 244 233 229 231 237 235 235 231 226 223 219 217 218 211 221 213 209 209 206
43 310 289 293 52 303 275 288 294 287 293 257 276 283 311 341 285 267 284 309 316 293 268 268 272 264 252 228 221 223 226 225 226 225 221 224 221 215 209 207 204 206 204 199
108 242 299 309 155 171 244 277 263 291 293 263 274 263 163 297 251 252 268 280 300 295 286 279 246 251 255 233 227 223 229 222 224 220 218 219 212 203 205 201 202 199 194 194
204 256 258 281 293 314 296 287 267 255 273 267 262 280 289 296 301 302 292 292 295 294 281 273 273 246 217 223 213 208 203 205 215 216 215 209 202 196 199 199 190 193 187 189
239 259 273 277 287 292 285 280 277 255 251 263 278 283 287 303 307 301 298 298 293 292 283 265 254 248 239 208 202 195 198 208 210 207 202 194 194 191 195 192 184 188 182 187
222 263 286 284 289 284 291 281 271 266 261 257 262 273 285 299 299 305 298 296 296 288 286 266 248 229 224 222 216 213 213 204 198 192 187 187 188 187 185 184 184 183 181 184
235 255 291 276 287 299 289 272 266 247 237 234 266 274 348 297 314 309 309 308 302 299 292 256 238 240 233 223 218 206 196 191 186 185 183 183 182 181 182 182 180 181 180 179
260 260 263 289 291 248 251 283 275 270 281 278 260 272 287 287 286 288 283 291 320 328 319 295 250 224 215 213 213 201 187 185 187 189 187 183 182 180 178 180 179 177 175 175
247 252 250 264 251 281 286 284 194 210 278 293 268 282 262 263 299 277 261 289 322 330 330 320 273 226 207 198 197 198 196 194 195 193 191 186 184 182 180 177 175 174 173 174
209 233 237 240 261 273 347 87 109 250 293 304 257 278 238 192 260 323 328 309 312 318 319 318 296 216 206 201 197 197 193 197 196 193 189 187 186 184 178 176 173 169 172 180
183 205 222 237 256 270 303 290 157 249 346 36 325 265 233 220 242 316 320 305 300 295 296 300 291 238 221 207 205 199 195 197 196 192 190 188 183 179 178 172 170 176 173 186
250 232 215 237 254 274 287 113 224 332 329 331 325 317 302 277 262 288 300 297 295 283 285 284 273 252 225 217 209 203 203 202 200 195 192 186 182 178 174 174 176 179 189 213
266 260 272 270 260 299 311 292 290 299 303 306 306 304 303 300 293 293 294 292 286 286 284 273 263 248 230 223 213 210 206 205 200 195 188 183 177 177 178 184 188 189 210 217
278 288 276 280 282 291 302 308 305 302 299 302 303 303 304 299 296 288 290 282 289 293 282 267 256 241 235 223 214 213 212 205 200 190 182 177 177 179 169 189 182 208 215 218
288 297 290 281 290 308 294 308 318 318 313 318 316 308 300 294 293 292 288 286 288 290 283 264 258 253 246 225 213 214 208 204 194 187 178 176 181 177 183 197 198 214 215 220
7 3 332 313 314 325 307 316 321 311 311 309 313 314 307 299 294 290 288 295 284 279 282 264 250 238 234 221 212 211 205 199 193 179 176 181 178 184 201 190 211 216 222 227